Tracking 29042 objects as of 22-Jun-2024
HD Live streaming from Space Station
objects crossing your sky now

STARLINK-30215

Track STARLINK-30215 now!
10-day predictions
STARLINK-30215 is classified as:


NORAD ID: 57445
Int'l Code: 2023-105R
Perigee: 565.4 km
Apogee: 567.0 km
Inclination: 43.0 °
Period: 95.8 minutes
Semi major axis: 6937 km
RCS: Unknown
Launch date: July 24, 2023
Source: United States (US)
Launch site: AIR FORCE EASTERN TEST RANGE (AFETR)
Your satellite tracking list
Your tracking list is empty




NASA's NSSDC Master Catalog

Two Line Element Set (TLE):
1 57445U 23105R   24173.13966283  .00000969  00000-0  86772-4 0  9999
2 57445  43.0041  65.9387 0001136 267.6349  92.4363 15.02534364 51157
Source of the keplerian elements: AFSPC